sat.trackr.live / text

‹ back to catalog

STARLINK-33595

NORAD 62766 · 2025-015J

PAYLOAD ACTIVE UNKNOWN

§ Identity

Operator
Country
US
Launch date
2025-01-21
Launch site
AFWTR
Launch vehicle
Mass (kg)
RCS (m²)

Purposes: comms

External: N2YO · Heavens-Above · Gunter

§ Orbital elements

Epoch: 2026-09-21T20:22:08.202720Z

Period
93.85 min
Inclination
53.1568°
Eccentricity
0.0000607
Mean motion
15.34418870 rev/d
Perigee alt
462.2 km
Apogee alt
463.1 km
Semi-major
6,840.8 km
B*
1.1912e-3
RAAN
127.0888°
Arg perigee
124.7158°
Mean anomaly
235.3902°
Rev number
9,457

§ Raw data

STARLINK-335951 62766U 25015J   26264.84870605  .00040111  00000+0  11912-2 0  99902 62766  53.1568 127.0888 0000607 124.7158 235.3902 15.34418870 94572

JSON: /api/v1/satellites/62766 · /tle

For live sub-satellite position, see the globe view (requires WebGL).

§ Visibility from observer

Set your observer location to see the next 7 days of passes ≥ 10°. The values pass through the URL so the page stays shareable.

No JS? Fill the form by hand. The geolocation button needs JavaScript.